Wind_Speed
10 11 11 10 10 10 10 10 11 11 12 12 12 13 13 13 13 13 13 14 13 11 9 10 11 11 11 11 11 12 11 11 11 11 11 11 10 10 9 9 9 9 8 8 8 8 8 8 8 9 10 11 10 9 9 9 9 8 8 7 7 7 6 6 6 6 6 6 6 7 7 6 6 6 6 6 5 5 4 3 2 1 0 1 2
10 11 12 12 12 12 12 11 11 12 13 13 14 14 15 15 15 14 14 15 15 14 12 11 12 12 12 12 12 13 13 12 11 11 12 12 11 11 11 10 10 10 10 9 9 9 9 9 9 10 11 11 12 11 10 10 9 9 9 8 8 8 7 7 7 7 7 7 7 7 7 7 7 7 7 6 6 5 4 3 2 1 1 1 2
11 11 11 12 13 14 14 13 13 13 14 14 14 15 16 16 16 16 16 15 15 15 15 13 13 13 13 13 13 14 14 13 13 12 12 12 12 12 12 12 12 11 11 11 11 11 10 10 11 11 11 12 12 12 11 11 10 10 9 9 9 9 9 8 7 8 8 8 8 8 8 8 8 8 8 7 6 5 4 3 3 3 2 2 2
13 12 12 12 12 13 15 15 16 16 16 16 16 16 16 17 18 18 17 16 16 16 16 15 14 14 15 15 15 15 15 14 14 13 14 14 13 13 13 13 13 13 13 13 12 12 12 11 11 12 12 12 12 13 12 12 12 11 10 10 10 10 9 9 9 8 9 9 9 9 9 9 9 9 9 8 7 6 5 4 4 4 3 2 2
15 15 14 13 13 13 15 16 17 18 17 17 18 17 17 17 18 19 18 18 17 17 16 16 16 16 16 16 16 16 16 15 15 15 15 15 15 14 14 14 14 14 15 15 14 14 14 13 13 12 13 13 13 13 13 13 13 12 12 11 11 10 10 10 10 10 9 10 10 10 9 10 10 10 10 9 8 7 6 5 5 4 3 2 2
17 17 17 17 16 16 16 16 17 18 19 18 18 19 18 18 19 20 19 19 19 19 18 18 18 18 18 17 16 17 17 16 16 16 16 16 16 15 14 14 14 15 16 17 17 17 16 15 14 14 13 14 14 14 14 13 13 13 13 12 12 12 11 11 11 11 11 11 11 10 10 10 10 11 10 10 9 8 7 6 5 5 4 3 3
18 19 20 20 20 20 19 18 18 19 20 20 19 19 19 19 19 20 21 21 20 20 20 20 20 19 19 18 18 18 17 17 17 16 16 17 17 16 15 14 14 15 16 18 19 19 18 17 16 15 15 14 14 15 15 15 14 14 14 13 13 13 13 12 12 12 12 12 12 11 11 11 11 11 11 11 10 9 8 6 6 5 4 4 4
19 19 21 21 22 23 23 22 21 22 21 21 21 21 20 19 19 20 21 22 22 22 22 21 21 20 19 20 19 19 19 18 18 17 17 17 17 17 16 15 15 15 16 17 19 20 20 19 18 17 17 16 15 15 15 16 16 15 15 14 14 14 14 14 14 13 13 13 13 12 12 12 12 12 12 11 11 10 8 7 6 6 5 5 5
22 20 18 21 24 26 27 26 25 26 25 24 24 24 22 21 21 21 22 22 23 23 23 22 22 21 21 21 21 21 21 20 20 19 18 18 18 18 18 17 16 16 16 17 19 20 21 21 20 19 19 18 17 16 16 17 17 17 16 16 15 15 15 15 15 15 14 14 14 14 13 13 13 13 13 12 12 11 9 8 7 7 6 6 6
25 23 20 21 24 27 29 30 30 30 28 27 27 27 26 25 23 22 22 23 23 23 23 23 23 22 22 23 23 24 23 22 21 20 19 18 18 19 19 19 18 18 17 17 18 20 21 22 22 21 21 20 18 18 17 17 18 18 18 18 17 17 16 16 17 16 16 16 15 15 15 14 14 14 14 13 13 12 11 9 8 8 8 7 7
28 28 26 25 27 28 29 31 32 33 31 29 29 29 29 28 27 24 23 23 24 23 24 24 24 24 24 24 25 25 25 25 23 22 21 20 20 20 20 20 20 19 19 18 19 20 21 23 24 23 22 21 20 20 19 19 19 19 19 19 19 18 18 18 18 18 18 17 17 17 16 16 15 15 15 14 14 13 12 11 10 9 9 8 8
31 31 31 30 30 30 30 31 32 33 33 32 32 31 31 31 31 29 27 25 25 25 25 25 26 26 25 25 26 26 27 27 25 23 23 22 22 21 21 21 20 20 20 20 20 20 21 23 24 25 24 24 23 22 21 21 20 20 19 20 20 20 20 19 19 19 19 19 18 18 18 17 17 17 16 16 15 14 13 12 11 10 10 10 9
32 32 33 33 33 33 32 31 31 32 33 34 34 34 35 34 34 33 32 30 27 27 27 27 27 26 26 27 27 27 28 29 28 26 24 24 24 23 22 22 22 21 22 22 22 22 22 23 24 25 26 26 25 24 24 23 22 21 20 20 20 21 22 21 21 20 20 20 20 20 19 19 19 18 18 17 17 16 15 14 13 12 11 11 10
34 34 35 35 35 35 34 33 32 33 34 35 35 36 38 37 35 36 36 34 30 28 28 29 29 27 27 28 28 28 29 29 29 28 26 25 25 24 24 24 24 23 23 23 24 24 24 24 25 26 26 27 26 26 25 24 23 22 21 20 20 22 23 22 22 22 22 21 21 21 21 20 20 20 19 19 18 18 17 16 15 14 13 13 12
36 36 37 37 38 37 36 36 35 36 36 36 35 36 38 36 35 37 38 37 34 32 31 30 31 30 30 31 29 29 30 30 29 28 28 27 26 25 25 26 26 26 25 25 25 26 26 26 26 25 26 27 27 27 26 25 24 22 22 22 21 22 23 23 23 23 23 22 22 22 21 21 21 21 21 20 20 19 19 18 17 16 15 15 14
38 38 39 39 40 40 39 38 37 38 38 37 36 35 36 36 36 37 38 38 38 36 34 33 33 32 32 33 31 31 32 30 29 28 28 28 27 27 27 27 27 27 28 27 27 27 28 28 28 27 27 27 28 28 27 27 25 24 23 23 23 22 22 23 23 23 23 23 23 23 23 23 23 22 22 21 21 21 20 19 18 18 17 17 16
39 39 40 40 40 40 40 39 37 37 36 36 36 35 35 36 37 38 38 38 39 38 37 38 37 35 33 33 32 34 33 31 30 29 28 28 28 28 28 27 27 28 29 28 28 28 28 29 31 30 29 28 28 29 29 28 28 26 25 24 24 23 23 23 23 23 23 23 24 24 24 24 24 24 23 23 22 22 21 20 20 19 18 18 18
37 37 37 38 37 37 38 38 38 37 34 34 35 35 35 35 37 40 39 39 40 40 40 41 40 37 35 34 34 35 34 33 33 31 29 28 28 28 28 28 28 28 29 28 28 28 28 30 31 31 30 30 29 29 29 29 29 28 27 26 25 25 24 24 24 24 24 25 25 26 26 26 26 25 25 24 24 23 23 22 21 20 20 20 19
34 34 34 35 35 34 34 35 36 36 34 32 31 33 35 36 38 40 39 37 39 41 41 41 41 37 35 36 36 35 35 36 36 34 31 30 29 29 29 29 29 29 29 28 28 28 28 29 30 31 31 30 30 30 29 29 29 30 29 28 27 27 27 27 26 26 26 26 26 27 27 27 27 27 27 26 25 25 24 23 23 21 21 20 20
32 33 33 33 33 33 32 32 34 35 34 32 30 31 34 36 37 37 36 36 37 38 39 40 40 38 37 38 38 38 38 38 38 36 34 33 31 30 30 30 30 30 30 29 28 28 28 28 29 30 32 32 31 31 31 30 29 29 30 30 30 30 30 30 29 29 28 27 27 28 28 28 28 28 28 28 27 26 26 25 24 24 23 22 21
33 33 33 33 33 32 31 29 30 31 32 32 30 30 32 35 35 33 33 35 36 35 38 40 40 39 38 39 39 40 41 40 40 37 35 35 33 31 30 30 30 30 30 29 28 28 28 28 28 30 32 33 33 33 32 32 31 30 30 30 31 32 32 32 32 31 30 29 29 29 29 29 29 29 29 29 29 28 27 27 27 26 25 24 23
33 33 33 32 32 32 30 27 26 27 29 30 30 29 31 32 33 32 33 34 34 33 35 38 39 40 40 40 39 39 40 42 40 36 34 34 34 32 30 29 30 30 29 29 29 30 30 30 30 30 31 33 34 35 34 34 33 31 30 30 31 33 34 34 34 33 32 31 30 30 30 31 31 31 30 30 30 30 29 28 28 28 27 26 25
30 31 32 32 31 30 30 28 26 26 27 28 28 28 29 30 31 32 33 32 31 31 32 34 36 38 39 39 39 38 39 42 41 36 34 33 33 33 32 30 30 30 29 28 29 30 31 31 31 31 31 31 33 36 36 36 35 33 31 31 31 32 34 35 35 34 33 32 31 31 31 31 32 32 31 31 31 31 31 30 30 29 29 28 27
26 27 29 30 30 29 29 29 27 27 27 27 27 27 28 28 30 31 31 30 30 31 31 33 34 34 35 36 38 37 38 42 40 35 35 34 34 35 34 33 34 33 31 30 29 30 31 32 32 32 32 32 32 34 36 37 36 35 33 32 33 33 33 34 35 34 33 32 31 31 31 31 32 32 32 33 33 33 33 32 32 31 30 30 30
23 24 26 27 28 28 28 28 28 27 27 27 27 26 26 27 29 29 29 30 32 32 31 32 33 32 31 33 36 37 37 39 37 34 35 37 37 38 37 36 37 37 36 35 33 31 31 32 32 33 33 33 32 32 34 36 37 36 36 34 34 34 33 34 34 33 33 32 31 31 31 31 31 32 33 33 34 35 35 35 34 33 33 32 32
21 22 23 24 25 26 26 27 28 28 28 27 26 26 25 26 28 29 29 30 32 32 31 30 31 31 31 32 35 38 38 38 36 34 36 37 37 38 38 37 38 39 39 39 38 35 33 32 33 33 33 33 33 32 31 33 35 36 36 36 35 35 35 34 34 33 32 32 32 32 33 33 33 33 33 34 34 35 36 36 36 35 35 35 35
20 20 21 22 23 25 25 26 27 27 28 28 28 28 27 27 28 29 29 30 32 33 32 31 31 32 34 36 39 40 39 39 38 37 38 38 38 38 38 39 40 41 41 40 40 39 36 34 34 33 33 34 34 32 31 31 33 35 35 36 36 36 36 35 35 35 34 34 34 34 34 34 34 34 35 35 35 35 36 36 37 37 37 37 37
20 20 20 21 22 23 24 25 27 27 28 28 29 30 30 30 29 30 31 31 32 33 33 33 34 36 38 39 40 40 38 38 39 39 39 40 40 40 40 41 42 44 44 42 41 40 38 36 35 33 33 34 35 33 32 31 32 33 34 36 36 36 36 36 36 36 37 37 36 35 35 34 35 35 35 36 36 36 37 37 37 38 38 38 38
21 20 20 20 21 23 24 25 26 27 28 29 30 30 31 32 32 32 33 33 34 35 35 36 36 38 39 40 40 39 38 39 40 40 40 40 41 41 40 40 41 43 44 44 43 41 39 37 35 34 33 34 35 35 33 33 32 32 34 35 36 36 36 36 37 37 38 38 37 35 34 34 33 33 34 34 35 35 36 37 37 38 38 38 39
21 20 19 19 19 21 23 24 26 27 28 29 30 31 31 32 33 33 33 35 37 37 38 39 39 39 40 41 41 41 40 40 41 41 41 42 41 41 41 40 41 42 43 44 44 42 41 39 37 35 33 33 35 36 35 34 32 32 34 35 36 36 36 37 37 38 38 37 36 35 34 33 33 32 32 32 32 33 34 35 35 36 37 37 38
20 19 19 18 19 20 21 23 25 27 28 29 30 30 31 32 33 33 33 34 36 38 38 40 41 43 44 44 44 44 42 42 43 43 43 43 42 41 42 41 40 41 42 43 44 41 40 41 38 35 34 33 35 36 36 34 33 33 33 34 35 36 37 37 37 37 37 36 36 36 35 34 33 32 32 31 32 32 33 33 34 34 35 36 37
19 19 19 19 19 20 20 21 22 24 26 27 28 29 30 30 30 31 32 32 34 36 37 38 40 43 45 47 47 46 45 45 45 44 44 44 43 42 42 42 40 40 41 42 43 40 40 41 40 37 35 34 36 37 37 35 34 33 33 33 34 36 36 36 36 36 36 36 36 36 35 34 33 32 32 32 32 32 32 33 33 33 34 34 35
20 20 20 20 20 20 20 21 21 22 23 23 24 25 26 27 28 29 30 31 31 33 36 37 39 41 43 46 48 47 47 48 47 45 45 45 44 44 43 43 41 40 40 42 42 41 40 40 39 36 34 35 37 38 37 36 34 34 33 33 33 34 34 34 34 34 34 34 33 33 32 31 30 30 30 30 30 31 32 32 32 33 33 33 33
21 21 20 20 20 21 21 21 21 21 21 21 22 24 25 26 28 29 31 32 32 33 34 35 37 40 42 43 45 45 47 48 47 46 45 45 45 45 44 43 42 41 41 41 41 42 41 38 37 36 34 35 37 39 38 36 35 35 34 33 33 32 31 31 31 31 31 30 29 28 28 27 26 26 25 26 27 28 30 31 32 32 32 32 32
20 20 19 19 20 21 21 20 19 19 19 20 21 23 25 27 28 30 31 31 33 33 33 33 34 37 40 42 42 43 44 46 47 47 45 44 45 46 46 45 44 42 41 40 40 41 41 39 39 38 37 36 37 38 39 37 36 36 36 35 34 32 30 29 29 28 27 27 27 26 26 25 24 23 23 23 24 25 27 29 30 31 32 31 31
19 19 20 20 20 21 20 18 17 18 19 20 22 23 25 27 28 29 30 31 32 34 34 34 33 33 36 40 40 41 42 43 45 46 45 45 45 46 46 45 45 44 42 41 40 40 40 39 39 38 38 38 38 38 40 39 38 38 38 37 35 33 30 29 29 27 26 26 26 25 25 24 23 22 21 21 22 23 25 26 28 30 31 31 31
19 19 20 20 20 20 19 17 16 17 19 20 21 23 24 24 25 26 28 30 32 33 34 35 35 34 34 36 38 39 40 40 42 43 43 44 45 44 44 44 45 45 43 42 41 40 40 39 37 37 38 39 39 40 41 41 39 39 40 39 37 35 32 30 30 28 26 25 24 24 23 23 22 21 20 20 20 22 23 25 26 28 30 31 31
19 19 19 20 20 19 19 18 17 17 18 19 22 24 24 24 25 26 27 28 30 31 32 33 34 34 34 34 34 36 37 38 38 39 40 42 43 43 42 42 44 44 44 44 42 40 41 39 36 36 36 37 40 41 41 42 41 41 42 41 40 38 35 33 32 31 29 27 25 24 24 23 23 22 21 21 21 21 23 24 26 28 29 30 31
19 19 19 19 20 19 19 19 19 19 19 19 21 23 24 25 27 29 29 30 31 32 32 31 31 32 34 33 32 32 34 36 36 36 38 40 41 42 42 41 42 44 44 44 42 41 42 40 37 36 36 37 39 40 41 42 43 43 43 44 43 41 38 37 35 35 33 31 29 28 27 26 26 25 25 25 24 24 24 26 27 28 29 30 31
20 20 20 19 19 18 18 18 19 20 20 21 22 22 24 26 28 30 31 33 36 35 32 30 30 30 32 33 31 30 30 31 33 34 35 37 39 40 39 38 40 43 43 43 43 42 43 43 40 38 38 37 39 40 40 42 45 46 45 45 45 44 41 40 39 38 37 36 35 34 33 31 30 29 28 27 27 27 27 28 29 29 30 30 31
21 21 21 20 18 17 17 18 19 20 21 22 23 23 24 26 28 30 32 35 39 40 33 28 29 30 30 32 32 29 27 28 30 31 32 34 36 36 37 37 38 40 41 42 43 43 44 44 42 40 39 38 39 40 40 43 47 47 45 45 46 45 43 42 41 40 39 38 38 38 37 36 35 33 31 29 28 28 29 30 30 29 29 30 30
20 20 20 19 18 16 15 17 18 19 21 22 23 23 24 26 28 30 33 35 40 42 35 28 28 29 28 30 31 30 29 29 29 30 31 32 34 34 34 36 37 37 40 42 43 43 44 44 43 42 41 39 39 40 40 42 45 46 45 46 46 46 45 44 44 41 40 39 40 39 39 38 38 36 34 32 30 30 31 31 31 29 28 29 29
19 18 18 18 17 16 16 17 17 19 21 22 23 24 24 26 27 30 33 35 41 44 36 27 27 29 26 26 28 28 29 29 27 27 29 31 32 33 34 35 36 37 40 42 42 43 44 44 44 44 43 41 40 40 39 40 43 46 46 47 47 47 46 46 45 43 42 41 41 41 40 39 39 38 37 35 32 31 32 31 30 28 27 28 27
17 16 16 16 17 17 17 18 18 20 21 23 23 24 24 24 25 28 33 36 42 46 36 26 25 26 24 23 24 25 26 27 28 28 30 31 32 33 34 36 37 37 39 41 42 43 44 45 45 46 45 43 42 41 39 39 42 45 46 47 47 48 47 46 46 44 43 42 42 42 42 40 39 38 37 35 33 32 32 31 28 26 26 26 26
17 16 16 16 16 17 18 19 20 20 22 23 24 23 23 23 24 26 31 35 41 45 35 25 24 22 18 19 21 24 25 27 29 31 32 33 34 34 35 37 38 39 40 41 43 44 45 45 46 47 46 45 43 41 39 39 40 43 45 47 48 48 47 46 44 43 43 42 42 43 42 40 39 38 37 35 34 33 32 30 27 25 25 25 25
17 16 16 16 17 18 19 20 21 21 21 23 23 23 23 23 22 25 29 34 40 44 35 25 23 21 13 10 12 18 22 26 29 31 33 35 35 36 36 37 38 39 40 41 43 45 47 47 47 48 47 45 44 41 38 38 40 42 44 46 47 47 46 44 43 43 44 42 41 41 41 39 38 36 35 34 34 33 32 29 25 24 23 24 24
17 16 16 16 18 19 20 21 21 21 21 23 22 22 22 22 21 23 27 32 38 41 38 30 26 22 17 13 8 8 13 20 26 30 32 33 35 36 36 37 38 39 40 42 43 45 48 49 49 48 47 46 44 42 39 39 41 42 43 45 45 46 45 44 43 42 42 40 38 38 37 36 35 34 33 33 34 33 31 27 24 23 23 24 24
17 17 17 17 18 19 20 20 20 20 21 22 22 21 21 20 20 21 24 30 36 40 40 37 32 26 21 18 14 10 11 14 20 28 32 32 33 35 36 36 38 40 41 42 43 45 47 48 50 49 46 46 46 43 40 40 40 41 42 44 45 46 46 45 42 40 39 36 35 34 34 33 32 31 32 33 33 32 29 26 24 23 23 23 24
17 18 17 17 17 18 19 20 20 20 20 20 20 20 21 20 19 20 22 28 35 39 39 38 37 30 22 19 17 14 13 14 14 17 27 34 34 34 36 36 37 39 40 39 41 44 45 45 47 48 48 47 47 45 42 40 39 41 43 44 45 46 45 44 41 39 37 36 33 32 32 32 31 31 31 32 31 30 28 25 24 23 23 23 23
18 18 17 16 16 17 18 19 20 20 19 19 19 19 20 20 19 19 21 25 32 37 37 35 37 35 27 20 18 16 15 14 14 12 13 26 32 31 33 35 37 39 38 37 38 41 43 43 44 46 48 48 47 46 45 42 40 41 43 43 43 43 43 41 39 38 38 37 35 33 33 32 31 31 31 31 30 28 26 25 24 23 23 22 22
18 17 16 15 15 16 17 18 20 20 20 20 20 19 19 20 19 19 20 23 28 33 35 33 33 36 35 27 19 16 16 16 17 17 12 10 22 27 29 31 33 35 35 35 36 38 40 42 44 46 48 48 47 47 46 43 42 43 43 42 41 41 41 39 38 38 38 38 36 34 33 31 31 31 31 29 28 26 25 24 24 23 23 22 21
Wind_Direction
289 284 281 281 282 285 286 285 283 283 282 280 278 277 275 273 267 262 263 267 270 269 264 265 267 262 250 245 244 245 243 235 230 234 235 232 232 233 234 234 235 237 229 212 203 203 202 205 214 207 193 186 185 183 178 174 172 170 170 172 175 177 180 182 181 180 178 178 178 175 172 174 178 179 179 179 179 179 178 178 176 165 116 347 348
284 278 273 272 274 277 278 279 281 282 282 280 277 275 272 271 268 262 258 261 268 272 268 262 263 264 257 249 245 244 245 241 235 235 235 231 230 229 229 228 229 232 232 223 211 207 208 207 210 215 208 196 189 189 186 185 183 182 181 181 183 183 185 190 192 191 189 189 188 186 183 184 188 190 192 192 192 194 200 210 221 241 270 298 312
281 277 272 267 268 270 272 274 276 277 277 276 273 272 272 271 269 265 259 258 265 270 269 264 259 260 260 254 248 245 243 240 236 235 235 233 230 228 228 228 229 230 231 231 223 213 211 213 211 213 217 210 199 194 193 193 192 192 191 190 191 190 190 194 199 201 201 200 199 197 194 194 196 198 202 203 205 210 219 232 248 259 270 288 305
278 275 272 269 267 269 272 274 276 277 276 274 270 267 267 268 269 268 264 260 261 267 268 265 261 260 261 258 253 247 241 237 235 235 236 236 234 231 229 229 230 230 231 232 232 224 216 215 217 215 217 218 212 205 201 199 199 199 199 199 199 199 198 198 201 207 211 211 209 207 205 204 204 206 210 212 215 220 228 240 254 263 271 291 313
282 277 273 270 270 271 272 272 274 276 276 273 270 267 264 264 265 266 265 262 261 263 266 266 264 262 262 261 256 252 245 238 236 237 237 238 239 237 234 232 230 230 232 232 233 233 225 218 219 220 219 220 220 216 211 207 205 205 205 204 205 206 206 205 205 209 215 218 218 217 214 212 212 213 215 219 222 227 234 243 256 265 270 285 308
281 277 275 272 270 270 272 270 266 267 269 271 271 270 267 265 265 265 264 261 259 260 264 266 264 262 262 262 258 253 249 244 242 243 241 240 239 239 239 237 234 231 231 232 232 234 232 226 222 223 224 224 224 223 221 218 214 212 211 209 209 209 211 210 210 212 215 220 222 223 222 220 219 219 221 223 227 232 238 246 254 260 266 277 293
276 274 274 275 274 271 270 269 266 263 263 265 265 266 267 266 266 266 265 263 260 259 261 263 264 262 259 258 256 251 248 247 247 247 246 243 242 241 240 239 239 235 232 232 232 232 233 231 229 226 226 226 228 228 228 227 225 221 218 216 214 213 213 214 215 215 217 220 223 225 227 226 225 225 226 228 231 236 241 245 250 255 262 271 281
271 269 272 276 278 276 271 267 266 266 267 267 266 264 262 261 262 265 266 265 263 261 260 261 263 263 259 254 251 249 247 247 247 248 249 248 247 246 244 242 242 241 236 234 233 232 231 231 232 231 229 228 229 232 233 233 233 231 228 224 221 219 217 217 217 218 220 222 224 226 228 230 230 229 229 230 233 238 241 243 247 251 257 264 271
272 270 274 277 279 279 278 273 267 265 265 267 268 268 264 258 256 259 264 266 265 263 262 261 260 260 259 254 249 247 246 247 247 247 249 251 252 251 250 247 245 245 242 238 235 233 232 231 231 232 232 230 229 231 234 236 236 237 235 231 228 225 223 221 220 220 221 224 226 227 229 231 232 232 231 232 234 237 239 239 244 249 254 258 263
278 281 284 283 283 282 282 280 274 269 265 263 264 267 267 263 257 255 258 262 263 264 263 260 258 256 256 255 251 248 247 247 249 249 249 251 254 254 253 251 248 248 247 243 238 234 233 232 232 232 233 233 232 232 234 237 239 239 239 236 232 229 228 226 224 223 222 224 227 228 229 230 231 232 232 234 235 236 236 237 240 245 250 254 258
282 284 284 285 287 286 282 280 278 275 272 267 266 265 266 267 264 258 255 258 260 262 261 260 258 255 255 256 255 251 248 247 248 250 251 250 252 253 253 252 250 249 249 247 244 238 233 233 233 233 234 235 236 236 237 240 241 242 243 241 237 232 230 229 228 227 225 226 228 230 230 231 231 232 233 234 235 236 238 238 239 242 246 251 255
284 282 281 282 286 287 284 280 277 276 274 271 268 265 264 265 265 260 255 254 257 258 260 261 259 257 256 257 257 255 252 250 247 248 251 251 250 251 251 250 250 250 249 248 247 243 237 234 235 235 236 237 239 240 241 243 245 245 246 245 243 238 234 232 230 229 228 228 229 232 233 233 233 233 234 235 236 238 240 242 243 244 247 251 255
283 282 281 281 284 286 285 282 277 276 275 273 270 268 268 269 269 266 258 254 254 256 258 259 260 260 260 259 258 258 256 253 250 247 248 249 247 248 249 249 249 250 251 249 246 243 240 236 236 237 238 239 241 242 242 243 246 247 248 247 246 244 240 236 234 232 230 230 230 232 235 236 236 236 237 238 238 239 241 244 246 248 250 254 257
283 283 282 283 284 284 284 282 278 276 275 274 273 273 272 271 271 268 261 256 255 253 254 256 260 261 260 258 257 258 258 256 254 251 249 249 248 247 248 249 249 250 250 250 247 243 240 239 238 238 240 240 240 241 241 242 244 247 248 248 247 247 244 241 238 236 234 233 232 233 235 238 239 240 240 241 241 241 242 245 246 249 251 255 258
285 284 284 284 285 285 284 283 280 277 275 274 274 273 272 270 270 267 262 260 259 255 254 255 258 259 257 255 256 257 257 257 256 254 252 251 250 248 246 248 249 249 249 248 248 245 241 240 239 239 240 240 239 239 240 240 241 244 246 246 247 248 247 244 242 241 239 237 237 236 237 239 241 242 243 244 245 245 246 247 249 251 254 256 259
285 285 285 285 285 285 284 283 281 279 277 275 273 272 271 270 269 266 262 261 259 258 259 257 255 255 254 254 255 256 257 257 255 253 252 250 249 248 247 248 247 248 248 247 247 247 244 241 239 238 238 239 239 238 238 238 239 241 243 243 244 246 247 246 245 244 242 241 241 240 240 240 241 243 245 246 247 248 249 250 252 254 257 260 262
284 284 284 283 283 283 283 283 282 280 279 276 272 270 269 269 268 267 263 258 257 256 257 258 256 253 253 255 257 258 259 259 255 250 249 249 249 249 250 251 248 247 248 249 249 248 246 242 239 238 237 237 238 237 236 236 237 239 241 241 241 243 245 245 245 245 244 243 242 242 242 242 242 244 245 247 248 250 250 251 253 255 258 260 263
283 283 282 281 280 280 280 280 281 281 280 277 271 268 268 270 269 265 260 255 253 252 251 254 256 254 254 256 256 257 258 259 256 250 247 248 250 251 252 252 250 248 248 249 251 252 250 246 242 239 237 237 238 238 237 236 236 237 239 240 240 240 241 242 244 245 245 244 243 243 243 244 244 244 245 247 248 250 251 252 253 254 257 259 262
285 283 282 281 280 279 277 277 278 280 280 278 274 269 266 268 268 266 264 260 255 252 250 251 254 254 255 256 256 255 254 255 254 251 247 247 248 250 251 253 252 250 248 247 250 252 253 251 247 243 240 239 239 239 239 238 237 236 236 237 238 238 239 240 242 245 246 246 245 244 244 245 246 246 246 247 248 250 251 252 253 254 256 258 260
285 284 284 283 281 280 278 277 277 278 279 278 276 272 265 263 266 269 272 268 260 256 252 251 254 255 254 253 253 253 252 252 252 250 248 247 246 247 249 252 254 252 248 247 248 249 251 252 251 247 244 242 241 241 241 241 239 238 236 235 236 237 238 239 241 243 245 246 246 246 246 246 246 247 248 249 249 250 251 252 253 254 255 256 258
288 287 286 285 283 282 281 281 280 279 280 280 279 275 267 261 263 267 269 268 264 259 254 252 254 256 255 252 251 250 250 250 250 247 246 247 247 246 246 249 252 252 251 248 248 248 249 249 249 248 246 244 242 242 242 242 241 240 237 235 235 236 237 238 240 241 242 244 246 247 247 247 247 247 249 250 251 251 251 253 254 254 254 255 256
290 290 290 288 286 285 284 284 283 281 280 281 281 277 270 264 262 264 264 265 265 260 255 252 251 253 255 252 250 249 248 249 249 246 245 247 249 248 246 247 248 249 249 249 248 248 249 248 247 246 246 245 244 242 242 243 243 241 239 236 235 236 236 237 238 239 240 241 244 246 247 247 247 248 248 250 251 252 252 253 255 256 257 256 256
289 290 291 291 289 287 285 283 283 282 281 280 280 277 272 267 264 264 264 264 263 258 253 251 250 250 252 253 253 252 251 251 249 245 246 247 249 251 250 249 249 247 247 248 248 249 250 249 248 246 246 246 245 244 243 242 243 243 240 237 236 236 237 237 237 237 239 241 243 245 246 247 248 248 249 249 251 252 253 254 255 256 258 259 259
290 288 289 290 289 287 285 282 281 281 280 279 277 274 271 268 267 267 267 266 263 258 253 252 252 250 250 252 254 254 255 253 247 242 245 248 250 253 253 252 251 249 248 248 249 250 252 251 249 248 246 246 246 245 244 243 243 243 242 239 236 237 238 237 237 237 239 241 243 245 246 248 248 249 249 250 251 252 253 254 254 256 257 259 260
293 290 289 289 290 289 287 284 281 279 279 279 277 274 269 267 268 268 267 266 265 261 258 256 254 251 249 250 253 253 252 252 248 243 246 250 251 254 255 255 254 253 252 251 250 251 252 252 251 249 248 247 247 246 245 245 244 243 244 242 239 238 239 238 238 239 240 242 244 246 247 248 249 249 250 250 251 252 253 254 255 256 257 258 259
297 293 291 291 291 291 290 288 285 282 280 279 279 277 272 266 265 267 267 265 265 264 261 257 253 251 252 252 255 256 253 253 255 252 250 252 252 253 255 256 256 257 256 254 253 251 252 253 253 252 250 249 248 247 246 246 246 244 244 244 242 239 239 240 240 241 242 243 245 246 247 248 249 251 251 252 252 253 254 254 255 256 257 258 259
305 299 294 292 291 291 291 291 289 288 285 282 280 279 277 271 266 266 266 265 264 264 261 257 254 252 252 253 256 257 256 256 258 256 254 254 254 254 255 257 258 259 258 257 256 255 253 252 252 253 253 251 248 247 247 247 247 246 245 244 243 241 240 240 241 242 243 244 245 245 247 249 251 252 254 254 254 254 254 255 255 256 257 258 259
312 306 299 295 292 291 291 291 290 289 288 285 283 280 279 276 272 269 268 267 267 266 263 259 256 254 253 253 254 256 257 257 256 255 254 254 254 255 256 257 259 259 258 257 257 258 257 252 249 251 254 253 249 247 247 248 248 247 245 244 242 241 239 239 240 241 242 244 245 246 248 249 251 253 254 255 256 256 256 256 256 257 257 258 258
316 312 306 301 297 294 292 291 290 289 287 285 284 281 278 277 276 273 270 270 269 268 267 264 261 259 257 256 256 256 256 256 257 256 255 254 254 255 256 257 258 258 258 258 256 256 258 255 249 248 251 253 249 246 247 249 248 246 244 242 241 239 238 238 239 240 242 244 245 247 248 250 251 253 254 256 257 258 259 259 259 259 259 259 260
318 316 313 308 302 297 293 291 289 288 287 285 283 281 279 277 276 275 272 271 270 269 267 266 265 263 262 260 258 258 257 257 258 258 257 256 254 254 255 256 257 257 257 259 257 255 257 257 251 246 249 251 247 244 246 248 247 244 242 241 241 240 238 238 239 240 242 243 244 245 246 248 250 252 253 255 256 257 259 259 260 261 262 262 262
321 321 318 313 308 302 297 293 290 289 288 287 285 283 282 280 278 277 275 273 271 271 269 267 266 264 263 262 260 260 259 258 257 257 256 256 255 254 255 255 255 256 256 257 258 255 254 255 253 248 246 247 243 241 243 245 244 242 241 241 241 240 239 239 240 241 242 243 244 244 246 247 249 251 253 254 255 256 257 258 259 260 261 261 262
324 323 321 318 314 309 305 301 297 295 293 293 292 291 289 287 285 282 280 277 275 275 273 270 267 265 263 262 261 260 260 258 257 256 255 255 255 256 256 254 254 255 255 256 256 255 252 253 254 249 244 242 239 238 240 243 243 241 240 240 241 240 240 241 241 242 243 244 245 245 247 248 250 251 253 254 255 256 256 256 257 258 259 260 261
323 323 323 322 320 317 314 311 309 307 304 302 301 299 296 294 291 289 287 285 283 280 278 274 271 268 265 263 261 259 259 259 257 256 255 254 254 254 255 255 255 255 256 256 256 255 253 252 252 248 241 238 236 235 238 241 241 241 239 237 237 238 239 242 243 243 244 244 244 245 246 248 249 251 253 255 256 257 257 257 257 258 260 260 261
323 324 326 326 326 324 319 315 312 312 310 307 306 303 300 296 292 289 288 287 286 285 282 278 274 270 267 264 262 259 257 257 257 256 254 253 253 253 253 254 255 255 256 257 257 255 253 251 250 247 240 235 234 234 236 238 239 239 237 234 233 235 237 240 242 242 242 241 241 241 242 243 245 248 252 255 257 259 259 259 259 260 260 261 262
324 326 327 330 331 330 327 320 315 313 313 315 316 314 310 305 298 295 292 290 289 287 285 282 277 272 268 264 261 259 256 256 256 255 255 254 252 252 252 252 253 254 255 256 257 255 253 251 249 247 241 234 233 233 234 236 237 237 236 233 232 233 234 237 238 237 237 237 238 238 239 242 245 249 254 258 261 263 263 263 262 262 262 263 263
323 325 327 330 333 335 335 332 324 319 320 323 324 322 319 313 306 302 299 296 294 290 287 285 281 276 270 265 261 257 256 255 254 254 254 254 253 253 252 250 250 252 253 254 255 253 252 250 248 246 241 237 235 233 232 233 234 234 234 233 232 231 232 233 233 231 233 236 238 239 241 245 249 254 259 263 266 268 268 268 266 265 264 264 263
319 321 323 326 330 333 334 333 328 326 326 327 324 323 325 324 319 316 311 305 300 294 288 285 282 277 272 267 261 256 255 255 253 252 253 253 253 252 250 248 247 249 251 252 253 252 251 250 246 243 241 239 236 233 231 231 232 232 233 233 233 231 230 231 230 229 232 236 240 243 246 249 253 257 262 266 271 273 274 273 270 268 266 264 263
311 314 318 321 325 329 331 329 327 327 327 325 321 322 329 333 333 333 330 323 314 304 295 290 284 278 273 270 264 259 259 258 255 254 254 253 252 250 247 246 246 247 249 250 250 250 249 247 243 241 240 239 236 233 230 230 231 232 232 233 234 233 231 231 231 231 233 237 241 245 250 254 256 259 264 270 275 279 281 279 275 271 266 264 262
306 308 313 317 321 325 327 327 326 324 323 321 319 322 328 332 333 334 334 333 328 317 304 294 288 281 275 271 267 264 263 262 258 255 253 252 252 249 246 245 245 246 247 248 247 247 247 244 242 241 240 239 236 232 230 229 229 230 231 233 234 235 234 233 233 234 237 239 243 247 252 257 260 263 267 271 276 281 285 285 282 275 269 264 261
306 307 311 316 319 322 324 325 324 321 318 316 317 321 325 328 330 332 333 333 333 328 313 296 287 282 277 272 268 265 265 264 261 256 253 251 251 250 246 245 244 244 245 245 244 244 245 243 242 242 241 240 237 234 231 229 227 228 230 232 234 235 236 237 237 239 240 242 245 249 253 258 261 265 267 272 276 281 286 289 287 280 271 265 262
308 308 311 314 318 320 321 323 322 319 316 314 315 318 321 323 327 332 333 332 334 334 324 304 289 281 276 273 268 263 264 268 266 257 252 250 249 249 247 244 244 244 244 243 242 243 244 242 241 241 240 240 239 237 234 230 227 227 230 232 235 237 238 239 240 241 243 245 248 251 254 258 261 264 267 271 276 282 287 290 290 282 271 265 263
311 309 310 312 316 317 319 321 321 318 316 313 313 316 318 321 326 331 332 331 335 335 328 314 299 287 276 271 268 263 263 268 268 257 250 249 248 248 247 245 244 244 242 241 240 241 243 242 240 240 240 240 241 241 239 234 228 227 229 232 235 237 238 240 242 243 245 248 250 253 256 258 260 263 266 270 276 283 288 291 290 281 269 263 262
311 308 307 310 313 313 316 319 318 316 314 311 312 314 315 320 326 330 330 331 336 336 329 319 309 296 282 273 267 264 261 262 262 255 249 249 249 248 248 245 243 242 240 239 239 240 242 241 239 238 239 241 244 243 242 238 231 227 228 231 234 236 238 241 243 245 247 250 252 255 257 258 260 262 265 269 275 281 286 289 287 278 267 262 261
309 305 305 308 311 310 313 316 315 314 311 309 310 312 314 322 328 330 329 331 337 338 332 325 322 308 288 274 267 264 263 259 257 254 250 250 251 250 249 246 243 241 239 238 238 239 241 241 239 238 239 241 244 244 242 239 232 228 229 231 233 235 237 241 244 247 248 249 252 255 257 258 260 262 265 269 274 279 284 287 283 273 265 261 260
307 305 304 307 309 309 311 315 316 315 310 307 309 311 314 323 330 330 329 331 338 341 334 331 341 334 300 275 265 264 266 263 258 255 253 253 254 253 251 247 243 241 239 238 237 238 240 241 240 239 238 240 242 243 242 239 233 230 231 232 233 234 237 240 244 248 249 249 250 253 256 258 261 263 266 268 271 276 281 284 278 269 264 261 260
311 310 309 309 310 310 311 313 314 315 311 308 309 312 315 324 331 331 330 332 339 344 341 335 347 354 337 297 267 259 261 260 257 255 253 254 255 254 251 248 244 243 242 239 238 238 238 239 239 238 237 238 240 241 240 237 234 232 232 232 233 234 237 240 243 246 247 248 250 253 256 259 262 263 265 267 269 274 280 281 273 265 263 261 259
319 318 318 315 314 313 312 314 316 317 315 311 312 313 315 324 332 332 332 335 339 346 351 347 344 347 346 343 332 292 273 265 259 255 254 253 254 253 252 248 245 245 244 243 240 238 238 238 238 237 236 236 238 238 237 236 234 233 234 233 232 232 235 238 240 243 247 249 251 254 256 258 260 261 263 265 268 273 278 276 267 262 262 261 258
326 327 327 324 320 318 318 320 322 322 320 316 316 317 317 324 333 332 334 338 340 347 356 355 348 342 333 331 337 337 319 298 276 264 259 257 253 253 252 249 247 246 247 245 241 238 238 238 237 236 236 235 236 236 235 235 234 235 234 231 229 229 232 235 238 241 246 247 249 251 254 255 257 259 261 264 269 275 276 272 264 259 260 260 256
332 332 333 331 329 329 328 328 327 326 325 322 322 324 321 325 332 332 334 339 342 350 356 355 354 350 334 322 328 333 330 328 314 281 263 257 253 252 252 250 249 248 247 244 239 236 236 237 236 235 234 234 234 233 233 234 234 235 233 229 226 228 231 235 238 240 243 244 245 248 251 255 257 259 262 266 271 274 272 266 261 257 257 258 254
335 335 336 338 339 338 336 334 331 330 329 328 331 334 330 328 329 331 334 337 343 351 356 354 356 359 352 334 323 324 327 329 339 342 290 259 252 252 253 251 248 246 245 241 236 234 235 236 235 233 231 231 231 231 231 232 233 233 230 227 226 228 231 235 237 239 240 241 243 246 252 256 258 260 264 267 271 271 267 262 258 255 253 255 253
336 335 336 339 341 340 338 337 337 336 333 330 334 339 338 335 331 328 331 334 340 350 354 353 357 1 2 358 340 321 320 321 330 354 358 279 251 251 254 253 247 242 241 240 239 237 237 237 234 231 229 228 228 229 229 229 229 228 226 225 227 228 231 234 236 238 240 241 242 248 254 258 259 261 264 266 268 266 261 258 256 253 250 250 250
Height
3224 3223 3223 3223 3222 3222 3222 3222 3222 3221 3221 3222 3222 3222 3222 3222 3222 3221 3221 3221 3221 3222 3222 3222 3222 3222 3222 3222 3222 3221 3221 3221 3221 3221 3221 3221 3221 3221 3221 3222 3222 3222 3222 3222 3222 3222 3223 3223 3224 3224 3225 3225 3226 3227 3227 3228 3228 3229 3229 3230 3231 3231 3232 3232 3232 3232 3232 3232 3233 3233 3233 3234 3234 3235 3235 3236 3236 3236 3236 3236 3236 3236 3236 3236 3236
3222 3222 3222 3221 3221 3221 3221 3221 3220 3220 3220 3220 3220 3220 3221 3221 3221 3220 3220 3220 3219 3220 3220 3220 3220 3220 3220 3221 3221 3221 3221 3221 3221 3220 3220 3220 3220 3220 3220 3220 3221 3221 3222 3222 3221 3222 3222 3222 3223 3224 3224 3224 3225 3226 3226 3227 3227 3228 3228 3229 3230 3230 3231 3231 3232 3232 3232 3232 3233 3233 3233 3233 3234 3235 3235 3235 3236 3236 3236 3236 3236 3236 3236 3236 3235
3220 3220 3220 3220 3220 3219 3219 3219 3219 3218 3218 3218 3218 3218 3218 3219 3219 3219 3218 3218 3218 3218 3218 3219 3219 3219 3219 3219 3219 3220 3220 3220 3220 3220 3219 3219 3219 3219 3219 3219 3219 3220 3220 3221 3221 3221 3221 3222 3222 3223 3223 3224 3224 3225 3225 3226 3227 3227 3228 3228 3229 3229 3230 3230 3231 3231 3232 3232 3232 3232 3233 3233 3233 3234 3234 3235 3235 3235 3236 3236 3236 3236 3235 3235 3235
3219 3218 3218 3218 3218 3218 3218 3217 3217 3216 3216 3216 3216 3216 3216 3216 3217 3217 3217 3217 3217 3217 3217 3217 3217 3217 3218 3218 3218 3218 3218 3218 3219 3218 3218 3218 3218 3218 3218 3218 3218 3218 3219 3219 3220 3220 3220 3221 3221 3222 3222 3223 3223 3224 3224 3225 3226 3226 3227 3227 3228 3228 3229 3229 3230 3230 3231 3231 3232 3232 3232 3232 3233 3233 3234 3234 3235 3235 3235 3235 3235 3235 3235 3235 3235
3217 3217 3216 3216 3216 3216 3215 3215 3215 3214 3214 3214 3214 3214 3214 3214 3214 3214 3215 3215 3215 3215 3215 3215 3215 3215 3216 3216 3216 3217 3217 3217 3217 3217 3217 3217 3217 3217 3217 3217 3217 3217 3217 3218 3219 3219 3220 3220 3220 3221 3221 3222 3222 3223 3223 3224 3225 3225 3226 3226 3227 3227 3228 3228 3229 3229 3230 3231 3231 3231 3232 3232 3232 3233 3233 3233 3234 3234 3234 3235 3235 3235 3235 3235 3234
3215 3215 3215 3214 3214 3213 3213 3212 3212 3211 3211 3211 3212 3212 3212 3212 3212 3212 3212 3212 3213 3213 3213 3214 3213 3214 3214 3214 3214 3215 3215 3216 3215 3215 3215 3215 3215 3216 3216 3216 3216 3216 3216 3217 3217 3218 3218 3219 3219 3219 3220 3221 3221 3222 3222 3223 3224 3224 3225 3225 3226 3226 3227 3227 3227 3228 3228 3229 3230 3230 3231 3231 3231 3232 3232 3233 3233 3233 3234 3234 3234 3234 3234 3234 3234
3214 3213 3212 3212 3212 3211 3211 3210 3210 3209 3208 3208 3208 3209 3210 3210 3210 3210 3210 3210 3211 3211 3211 3211 3211 3212 3212 3212 3212 3212 3213 3214 3214 3214 3214 3214 3214 3214 3215 3215 3215 3215 3215 3215 3215 3216 3217 3218 3218 3218 3219 3219 3220 3221 3221 3222 3223 3223 3224 3224 3225 3225 3226 3226 3226 3227 3227 3228 3228 3229 3230 3230 3230 3231 3231 3232 3232 3232 3233 3233 3233 3233 3233 3233 3233
3211 3211 3210 3210 3209 3209 3209 3209 3208 3206 3206 3206 3205 3205 3206 3207 3207 3207 3207 3208 3208 3208 3208 3209 3209 3209 3210 3210 3210 3210 3210 3211 3212 3212 3212 3213 3213 3213 3213 3213 3213 3213 3213 3213 3214 3214 3215 3216 3216 3217 3217 3218 3219 3219 3220 3221 3221 3222 3223 3223 3224 3224 3224 3225 3225 3226 3226 3226 3227 3228 3228 3229 3229 3230 3230 3231 3231 3231 3232 3232 3232 3232 3232 3232 3232
3207 3208 3208 3207 3206 3206 3206 3206 3206 3205 3204 3203 3203 3203 3203 3204 3204 3205 3205 3205 3205 3206 3206 3206 3206 3207 3207 3207 3207 3207 3208 3209 3209 3210 3210 3211 3211 3212 3212 3212 3212 3212 3212 3212 3212 3212 3213 3214 3215 3215 3216 3216 3217 3218 3218 3219 3220 3220 3221 3222 3222 3223 3223 3224 3224 3224 3225 3225 3226 3226 3227 3228 3228 3229 3229 3229 3230 3230 3230 3231 3231 3231 3231 3231 3231
3203 3203 3205 3205 3204 3204 3203 3203 3203 3203 3202 3201 3201 3201 3201 3201 3202 3202 3202 3202 3203 3203 3203 3203 3203 3204 3204 3204 3204 3205 3205 3206 3207 3207 3208 3209 3209 3210 3210 3210 3210 3210 3210 3210 3210 3210 3211 3211 3212 3213 3214 3215 3215 3216 3216 3217 3218 3219 3219 3220 3220 3221 3222 3222 3223 3223 3224 3224 3224 3225 3225 3226 3227 3227 3228 3228 3228 3229 3229 3229 3230 3230 3230 3230 3230
3202 3200 3201 3202 3202 3201 3201 3200 3199 3199 3199 3198 3198 3198 3198 3198 3199 3200 3200 3200 3200 3200 3201 3201 3200 3201 3201 3201 3202 3202 3203 3203 3204 3205 3205 3206 3207 3207 3207 3207 3208 3208 3208 3209 3208 3208 3209 3209 3210 3211 3212 3213 3213 3214 3214 3215 3216 3217 3218 3218 3219 3219 3220 3220 3221 3222 3222 3223 3223 3223 3224 3224 3225 3226 3226 3227 3227 3228 3228 3228 3228 3229 3229 3229 3229
3201 3200 3199 3199 3199 3199 3198 3198 3196 3195 3195 3195 3195 3195 3195 3195 3197 3197 3196 3196 3197 3197 3198 3198 3197 3198 3198 3199 3199 3200 3200 3200 3201 3202 3203 3203 3204 3204 3205 3205 3205 3206 3206 3206 3207 3207 3207 3207 3208 3209 3210 3210 3211 3212 3212 3213 3214 3215 3215 3216 3217 3217 3218 3218 3219 3220 3220 3221 3221 3222 3222 3223 3224 3224 3225 3225 3226 3226 3227 3227 3227 3227 3227 3228 3228
3198 3197 3196 3196 3196 3195 3195 3194 3193 3192 3191 3191 3192 3192 3192 3193 3195 3195 3193 3192 3192 3194 3195 3194 3194 3195 3196 3196 3196 3196 3197 3197 3197 3198 3199 3200 3201 3201 3202 3202 3203 3203 3203 3204 3204 3204 3205 3205 3205 3206 3207 3208 3209 3209 3210 3211 3211 3212 3213 3214 3215 3216 3216 3216 3217 3218 3218 3219 3220 3220 3221 3221 3222 3223 3223 3224 3224 3225 3225 3225 3226 3226 3226 3227 3227
3195 3194 3193 3192 3192 3192 3191 3191 3190 3189 3188 3188 3188 3189 3189 3190 3191 3191 3190 3188 3188 3190 3191 3191 3191 3192 3193 3192 3193 3193 3193 3194 3195 3195 3196 3197 3198 3198 3199 3199 3200 3200 3201 3201 3201 3202 3202 3202 3203 3203 3204 3205 3206 3207 3207 3208 3209 3210 3211 3212 3213 3213 3214 3215 3215 3216 3217 3217 3218 3218 3219 3220 3220 3221 3222 3222 3223 3223 3224 3224 3224 3225 3225 3225 3226
3191 3190 3189 3188 3187 3187 3186 3186 3186 3185 3185 3184 3185 3185 3184 3185 3186 3186 3186 3185 3186 3187 3187 3188 3188 3188 3188 3188 3190 3190 3190 3191 3192 3193 3193 3194 3194 3195 3196 3196 3197 3197 3197 3198 3198 3199 3199 3200 3200 3201 3201 3202 3203 3204 3204 3205 3206 3207 3208 3209 3210 3211 3212 3212 3213 3214 3214 3215 3216 3217 3217 3218 3218 3219 3220 3220 3221 3222 3222 3222 3223 3223 3224 3224 3224
3186 3185 3184 3183 3182 3182 3181 3181 3181 3180 3180 3180 3181 3181 3180 3181 3180 3180 3181 3182 3182 3183 3184 3184 3184 3184 3184 3185 3186 3186 3186 3188 3189 3189 3190 3190 3191 3191 3192 3193 3194 3194 3194 3194 3195 3196 3196 3197 3197 3198 3198 3199 3200 3201 3201 3202 3203 3204 3205 3206 3208 3209 3209 3210 3211 3212 3212 3213 3214 3214 3215 3216 3216 3217 3218 3218 3219 3220 3220 3221 3221 3222 3222 3223 3223
3182 3181 3180 3179 3178 3177 3176 3176 3176 3175 3175 3175 3176 3177 3176 3176 3175 3175 3177 3177 3177 3178 3178 3179 3179 3180 3181 3182 3183 3183 3183 3185 3185 3185 3186 3187 3187 3188 3189 3190 3190 3191 3191 3191 3192 3192 3193 3193 3194 3195 3195 3196 3197 3197 3198 3199 3200 3201 3202 3204 3205 3206 3207 3207 3208 3209 3210 3210 3211 3211 3212 3213 3214 3214 3215 3216 3217 3217 3218 3219 3220 3220 3220 3221 3221
3178 3177 3176 3175 3174 3173 3172 3171 3170 3170 3171 3170 3170 3171 3172 3172 3171 3170 3171 3172 3172 3172 3171 3172 3174 3176 3177 3178 3179 3179 3180 3181 3181 3181 3182 3183 3184 3185 3186 3187 3187 3188 3188 3189 3189 3189 3190 3190 3191 3192 3192 3193 3194 3194 3195 3196 3197 3198 3199 3201 3202 3203 3203 3204 3205 3206 3207 3207 3208 3209 3209 3210 3211 3212 3212 3213 3214 3215 3216 3217 3217 3218 3218 3219 3219
3174 3173 3171 3170 3170 3169 3168 3167 3166 3165 3166 3166 3166 3166 3167 3167 3166 3164 3167 3169 3168 3167 3167 3168 3169 3171 3173 3174 3174 3175 3176 3176 3176 3176 3177 3179 3180 3181 3182 3183 3183 3184 3185 3185 3186 3186 3186 3187 3188 3189 3189 3190 3191 3192 3192 3193 3194 3194 3196 3197 3198 3199 3200 3201 3202 3203 3204 3205 3205 3206 3207 3207 3208 3209 3210 3211 3212 3212 3213 3214 3215 3215 3216 3216 3217
3169 3168 3167 3166 3165 3164 3164 3163 3162 3161 3162 3162 3162 3162 3162 3162 3161 3161 3163 3163 3163 3164 3165 3165 3165 3166 3168 3168 3169 3170 3171 3172 3171 3172 3173 3174 3176 3177 3178 3179 3179 3180 3181 3182 3182 3183 3183 3184 3185 3185 3186 3187 3188 3188 3189 3190 3191 3191 3192 3194 3195 3196 3196 3197 3198 3199 3200 3202 3202 3203 3204 3204 3205 3206 3207 3208 3209 3210 3211 3212 3212 3213 3213 3214 3214
3164 3164 3163 3161 3160 3160 3160 3160 3159 3158 3158 3158 3158 3157 3157 3157 3157 3158 3158 3157 3158 3160 3161 3162 3162 3163 3163 3163 3164 3165 3166 3167 3167 3168 3169 3169 3171 3173 3174 3175 3175 3176 3178 3179 3179 3179 3179 3180 3181 3181 3182 3183 3184 3185 3186 3186 3187 3188 3189 3191 3191 3192 3193 3194 3195 3196 3197 3198 3199 3200 3201 3201 3202 3203 3204 3205 3206 3207 3208 3209 3209 3210 3211 3211 3212
3160 3159 3158 3157 3156 3155 3155 3155 3155 3154 3154 3154 3153 3153 3152 3152 3152 3153 3153 3153 3154 3155 3156 3158 3159 3159 3158 3158 3159 3161 3162 3162 3162 3164 3165 3165 3166 3169 3170 3171 3171 3172 3174 3175 3175 3175 3176 3176 3177 3178 3178 3179 3180 3181 3182 3183 3184 3185 3186 3188 3188 3189 3189 3190 3191 3192 3193 3194 3195 3197 3198 3198 3199 3200 3201 3202 3203 3204 3205 3206 3207 3207 3208 3208 3209
3157 3155 3154 3153 3153 3152 3151 3151 3151 3150 3150 3150 3149 3149 3148 3148 3148 3148 3148 3150 3151 3151 3152 3153 3154 3155 3156 3155 3155 3156 3158 3158 3159 3161 3162 3161 3162 3164 3166 3167 3167 3168 3169 3170 3171 3171 3172 3172 3173 3174 3175 3175 3176 3177 3178 3179 3180 3182 3183 3184 3185 3185 3186 3187 3188 3189 3190 3191 3192 3193 3194 3195 3196 3197 3198 3199 3200 3201 3202 3203 3203 3204 3205 3205 3206
3155 3153 3152 3150 3150 3149 3148 3147 3147 3146 3146 3145 3145 3145 3145 3145 3144 3144 3145 3145 3146 3147 3148 3149 3151 3152 3153 3153 3152 3152 3155 3155 3155 3155 3157 3158 3158 3159 3161 3162 3162 3164 3166 3166 3167 3167 3168 3168 3169 3170 3171 3172 3172 3173 3174 3176 3177 3178 3180 3181 3181 3182 3183 3184 3185 3186 3187 3187 3189 3190 3191 3192 3192 3193 3194 3195 3196 3197 3198 3199 3200 3201 3202 3202 3202
3152 3151 3149 3148 3147 3146 3145 3144 3144 3143 3143 3142 3141 3141 3141 3141 3141 3141 3142 3142 3141 3143 3144 3145 3146 3148 3149 3149 3149 3150 3152 3152 3149 3149 3152 3154 3154 3155 3156 3158 3158 3159 3161 3162 3162 3163 3164 3165 3166 3166 3167 3168 3169 3170 3171 3172 3174 3175 3176 3177 3178 3179 3180 3181 3182 3183 3184 3185 3185 3186 3187 3188 3189 3190 3190 3191 3192 3193 3194 3195 3196 3197 3198 3198 3199
3149 3148 3147 3146 3144 3143 3142 3142 3141 3140 3139 3139 3138 3137 3137 3138 3137 3137 3139 3139 3138 3139 3141 3141 3142 3143 3144 3145 3146 3147 3148 3147 3144 3145 3147 3148 3149 3150 3152 3153 3153 3154 3155 3156 3157 3158 3160 3161 3162 3163 3164 3165 3165 3166 3167 3168 3170 3171 3172 3173 3174 3175 3176 3177 3178 3179 3180 3181 3182 3183 3184 3184 3185 3186 3187 3187 3188 3189 3190 3191 3192 3193 3194 3194 3195
3146 3145 3144 3143 3142 3141 3139 3138 3138 3137 3136 3135 3135 3134 3134 3134 3134 3134 3135 3135 3134 3134 3136 3137 3138 3139 3140 3141 3141 3142 3142 3141 3140 3141 3142 3143 3144 3146 3147 3148 3148 3148 3149 3151 3151 3153 3155 3157 3158 3159 3160 3161 3162 3162 3163 3164 3165 3167 3168 3169 3170 3171 3172 3174 3175 3176 3177 3178 3178 3179 3180 3181 3181 3182 3183 3184 3184 3185 3186 3187 3188 3189 3190 3190 3191
3143 3142 3141 3140 3139 3138 3137 3136 3135 3134 3133 3132 3131 3131 3130 3130 3131 3131 3131 3131 3131 3131 3131 3132 3133 3134 3135 3135 3136 3136 3137 3136 3136 3136 3137 3138 3139 3141 3142 3143 3143 3143 3144 3145 3146 3148 3151 3152 3154 3156 3157 3157 3157 3158 3159 3160 3161 3163 3164 3164 3166 3167 3168 3169 3170 3171 3173 3174 3175 3176 3177 3177 3178 3179 3179 3180 3181 3181 3182 3183 3184 3185 3185 3186 3187
3141 3140 3139 3138 3137 3136 3135 3134 3132 3131 3129 3128 3127 3127 3126 3126 3126 3127 3127 3127 3127 3127 3127 3127 3128 3129 3129 3129 3129 3130 3131 3131 3130 3131 3132 3133 3135 3136 3136 3138 3138 3138 3139 3140 3141 3144 3146 3147 3149 3152 3153 3153 3153 3154 3155 3156 3157 3158 3159 3160 3162 3163 3165 3166 3167 3168 3169 3170 3171 3172 3173 3174 3175 3175 3176 3176 3177 3177 3178 3179 3179 3180 3181 3182 3182
3139 3138 3136 3135 3134 3133 3132 3131 3130 3128 3126 3125 3124 3123 3123 3122 3122 3122 3122 3123 3122 3122 3122 3121 3122 3123 3122 3123 3123 3124 3126 3126 3125 3126 3127 3127 3129 3130 3131 3132 3133 3133 3135 3135 3135 3139 3141 3142 3144 3147 3149 3150 3149 3150 3151 3152 3153 3154 3154 3156 3158 3160 3161 3162 3163 3164 3165 3166 3168 3169 3169 3170 3171 3172 3172 3173 3173 3174 3174 3175 3175 3176 3176 3177 3178
3137 3135 3134 3133 3132 3131 3129 3128 3127 3125 3124 3122 3121 3120 3119 3118 3118 3118 3118 3118 3117 3116 3116 3116 3116 3116 3116 3117 3117 3118 3120 3120 3120 3121 3121 3122 3123 3125 3125 3127 3127 3128 3130 3130 3130 3133 3136 3137 3139 3142 3144 3145 3145 3146 3146 3147 3149 3150 3150 3152 3154 3156 3157 3158 3159 3161 3162 3163 3164 3165 3166 3166 3167 3168 3168 3169 3169 3170 3170 3171 3171 3172 3172 3173 3173
3135 3133 3132 3130 3129 3128 3127 3125 3124 3122 3120 3119 3118 3117 3116 3115 3114 3114 3113 3113 3113 3112 3111 3111 3110 3110 3109 3110 3110 3112 3114 3114 3114 3115 3116 3117 3118 3119 3119 3121 3122 3123 3125 3125 3125 3128 3132 3132 3134 3137 3139 3141 3141 3141 3142 3144 3145 3146 3147 3148 3150 3152 3153 3155 3156 3157 3158 3159 3160 3161 3162 3163 3164 3164 3165 3165 3166 3166 3166 3167 3167 3168 3168 3169 3169
3132 3131 3129 3128 3126 3125 3123 3122 3121 3119 3118 3116 3115 3114 3113 3112 3111 3110 3109 3108 3108 3107 3106 3105 3105 3104 3103 3103 3104 3106 3107 3106 3107 3109 3110 3111 3112 3113 3114 3115 3117 3118 3119 3120 3120 3123 3126 3128 3129 3132 3134 3135 3136 3137 3139 3140 3141 3142 3143 3144 3146 3147 3149 3151 3153 3154 3155 3156 3157 3158 3159 3160 3160 3161 3161 3162 3162 3162 3163 3163 3164 3164 3164 3165 3165
3130 3129 3127 3126 3124 3122 3121 3119 3118 3117 3116 3114 3113 3111 3109 3108 3107 3106 3104 3103 3102 3102 3100 3100 3099 3098 3097 3096 3097 3099 3099 3098 3100 3102 3104 3105 3106 3107 3108 3109 3111 3113 3114 3114 3116 3117 3120 3123 3125 3127 3129 3130 3132 3134 3135 3136 3138 3139 3139 3140 3141 3143 3145 3147 3149 3151 3152 3153 3154 3155 3156 3156 3157 3157 3158 3158 3158 3159 3159 3160 3160 3160 3161 3161 3161
3128 3126 3125 3124 3122 3120 3118 3116 3115 3114 3113 3112 3110 3108 3106 3104 3103 3101 3100 3098 3097 3096 3095 3094 3093 3092 3090 3090 3091 3092 3092 3091 3092 3095 3097 3099 3100 3101 3102 3104 3106 3108 3109 3110 3111 3112 3115 3118 3120 3121 3123 3125 3127 3130 3131 3133 3134 3134 3135 3137 3138 3140 3142 3144 3146 3148 3149 3150 3151 3152 3153 3153 3154 3154 3155 3155 3155 3156 3156 3156 3157 3157 3157 3158 3158
3126 3125 3123 3122 3120 3118 3116 3114 3113 3112 3111 3109 3107 3105 3103 3101 3099 3097 3095 3094 3092 3090 3089 3088 3087 3086 3084 3083 3084 3086 3086 3086 3086 3088 3091 3092 3093 3095 3096 3098 3100 3102 3104 3105 3106 3107 3109 3112 3114 3116 3118 3120 3123 3125 3127 3128 3129 3130 3132 3133 3135 3136 3138 3140 3142 3144 3146 3147 3148 3149 3149 3150 3151 3151 3152 3152 3152 3153 3153 3153 3153 3153 3154 3154 3154
3124 3123 3121 3120 3118 3117 3115 3113 3111 3110 3108 3107 3105 3103 3101 3098 3096 3094 3092 3090 3087 3085 3083 3082 3080 3079 3078 3077 3078 3079 3080 3080 3081 3082 3084 3086 3087 3089 3090 3092 3094 3096 3098 3100 3101 3102 3104 3106 3109 3111 3113 3115 3117 3120 3122 3124 3125 3127 3128 3130 3131 3133 3135 3137 3139 3141 3142 3143 3145 3146 3146 3147 3148 3148 3149 3149 3149 3150 3150 3149 3149 3149 3150 3150 3151
3122 3121 3120 3118 3117 3115 3113 3111 3109 3107 3106 3104 3103 3101 3098 3096 3094 3092 3089 3086 3083 3081 3078 3076 3075 3073 3072 3072 3072 3073 3074 3074 3075 3077 3078 3079 3081 3082 3084 3086 3088 3090 3092 3094 3096 3097 3098 3100 3103 3105 3107 3109 3112 3114 3118 3120 3122 3123 3124 3126 3128 3130 3131 3133 3135 3137 3139 3140 3141 3142 3143 3144 3145 3145 3146 3146 3146 3146 3146 3146 3146 3146 3146 3146 3147
3120 3119 3118 3116 3115 3113 3111 3109 3107 3105 3104 3102 3100 3098 3096 3094 3091 3089 3086 3083 3080 3077 3074 3071 3069 3068 3067 3067 3067 3068 3069 3069 3070 3072 3073 3073 3075 3076 3078 3081 3083 3084 3086 3088 3090 3092 3093 3095 3098 3100 3102 3104 3106 3109 3113 3116 3118 3119 3120 3122 3124 3126 3127 3129 3131 3133 3135 3136 3138 3139 3140 3141 3142 3142 3143 3143 3143 3143 3143 3143 3143 3142 3142 3142 3143
3118 3117 3116 3114 3113 3111 3109 3107 3105 3103 3101 3099 3098 3096 3093 3091 3088 3086 3083 3079 3076 3072 3069 3066 3064 3063 3062 3062 3062 3063 3064 3064 3065 3066 3067 3068 3069 3071 3073 3075 3077 3078 3079 3082 3084 3086 3087 3089 3092 3095 3097 3099 3101 3104 3107 3110 3112 3113 3115 3118 3119 3121 3124 3125 3127 3129 3130 3132 3134 3135 3136 3137 3138 3139 3139 3139 3140 3140 3139 3139 3139 3139 3139 3139 3139
3116 3115 3113 3112 3110 3109 3107 3105 3103 3101 3099 3097 3095 3093 3090 3088 3085 3082 3079 3076 3072 3067 3063 3061 3059 3058 3057 3057 3057 3058 3059 3059 3060 3061 3062 3062 3063 3065 3067 3069 3071 3072 3074 3076 3078 3080 3082 3084 3087 3090 3091 3093 3095 3098 3101 3104 3107 3110 3112 3114 3116 3118 3120 3122 3123 3124 3126 3128 3129 3130 3132 3133 3134 3135 3135 3136 3136 3136 3136 3135 3135 3135 3135 3135 3135
3114 3112 3111 3109 3108 3107 3105 3103 3101 3099 3096 3094 3092 3090 3087 3085 3082 3079 3076 3073 3069 3064 3059 3056 3054 3052 3052 3051 3051 3053 3054 3054 3055 3056 3056 3057 3058 3060 3062 3064 3065 3067 3069 3070 3072 3075 3077 3078 3082 3084 3085 3088 3090 3093 3096 3100 3103 3107 3109 3110 3112 3114 3116 3117 3118 3121 3123 3124 3125 3126 3128 3129 3130 3131 3132 3132 3133 3133 3132 3132 3131 3131 3131 3131 3132
3112 3110 3108 3107 3105 3104 3102 3101 3099 3096 3094 3092 3089 3087 3085 3082 3080 3076 3073 3069 3065 3060 3055 3052 3049 3047 3047 3047 3047 3047 3048 3049 3050 3051 3052 3052 3053 3055 3057 3058 3060 3061 3063 3064 3067 3069 3071 3073 3076 3078 3080 3083 3085 3088 3092 3095 3098 3101 3104 3106 3107 3109 3111 3112 3114 3116 3119 3120 3121 3122 3123 3124 3125 3127 3128 3129 3129 3129 3128 3128 3127 3126 3127 3127 3128
3109 3108 3106 3105 3103 3101 3100 3098 3096 3094 3092 3089 3087 3085 3083 3081 3078 3074 3070 3066 3062 3057 3052 3049 3046 3043 3042 3042 3042 3043 3044 3045 3045 3046 3047 3047 3048 3049 3051 3052 3054 3055 3057 3059 3061 3063 3065 3067 3070 3072 3075 3078 3081 3083 3087 3090 3093 3096 3099 3101 3103 3105 3106 3108 3110 3112 3114 3116 3116 3117 3119 3120 3121 3123 3124 3125 3126 3125 3124 3124 3123 3123 3123 3124 3125
3107 3105 3104 3102 3101 3099 3097 3096 3094 3092 3089 3086 3084 3082 3080 3078 3076 3073 3069 3064 3060 3055 3050 3046 3043 3040 3039 3038 3038 3039 3039 3040 3040 3041 3041 3042 3042 3043 3044 3045 3047 3048 3050 3053 3055 3057 3059 3062 3064 3066 3070 3073 3076 3079 3083 3086 3089 3092 3094 3096 3098 3100 3101 3103 3106 3108 3109 3111 3112 3113 3114 3116 3117 3119 3120 3121 3121 3121 3120 3120 3119 3120 3120 3121 3122
3105 3103 3102 3101 3099 3097 3095 3093 3091 3089 3087 3084 3082 3080 3078 3076 3073 3071 3067 3063 3059 3054 3048 3044 3041 3039 3036 3035 3034 3035 3035 3034 3035 3035 3035 3036 3036 3037 3038 3038 3040 3042 3044 3046 3049 3051 3053 3055 3057 3060 3064 3068 3071 3075 3079 3082 3084 3086 3088 3090 3093 3095 3097 3099 3101 3102 3103 3106 3108 3109 3111 3113 3114 3115 3116 3117 3117 3117 3117 3116 3116 3116 3117 3118 3118
3102 3101 3100 3098 3097 3095 3093 3091 3088 3087 3084 3082 3080 3078 3076 3074 3071 3069 3066 3062 3058 3053 3048 3044 3040 3038 3035 3033 3031 3031 3030 3029 3029 3029 3029 3030 3030 3030 3031 3032 3034 3036 3037 3039 3042 3045 3047 3049 3052 3055 3059 3063 3066 3070 3073 3076 3078 3081 3083 3085 3087 3089 3091 3092 3095 3097 3099 3102 3105 3106 3107 3109 3110 3111 3112 3113 3113 3113 3112 3112 3112 3113 3114 3114 3114
3100 3099 3098 3096 3094 3093 3090 3088 3086 3084 3082 3080 3078 3076 3074 3072 3069 3067 3064 3060 3057 3053 3048 3044 3040 3036 3034 3032 3030 3027 3026 3025 3024 3024 3024 3024 3024 3025 3025 3026 3028 3030 3031 3033 3036 3038 3041 3044 3046 3050 3054 3058 3061 3064 3068 3070 3073 3076 3077 3078 3080 3082 3084 3087 3090 3094 3096 3099 3101 3102 3104 3105 3106 3107 3108 3108 3108 3108 3108 3108 3108 3109 3110 3110 3111
3099 3097 3096 3094 3092 3091 3088 3086 3084 3082 3080 3078 3076 3074 3072 3070 3068 3066 3063 3059 3056 3052 3048 3044 3040 3035 3032 3030 3028 3025 3024 3022 3021 3019 3018 3018 3018 3020 3020 3021 3022 3023 3025 3027 3029 3031 3034 3037 3040 3044 3048 3052 3055 3059 3062 3065 3069 3071 3071 3072 3075 3078 3081 3084 3087 3090 3093 3095 3097 3099 3100 3101 3102 3104 3104 3104 3104 3104 3104 3104 3105 3105 3106 3107 3107
3097 3095 3094 3093 3091 3089 3087 3084 3082 3080 3078 3076 3074 3072 3070 3068 3066 3064 3062 3058 3055 3051 3048 3045 3040 3035 3031 3028 3026 3024 3022 3020 3018 3015 3013 3013 3013 3014 3015 3015 3016 3017 3019 3021 3023 3025 3028 3031 3034 3038 3041 3045 3049 3053 3056 3060 3064 3065 3066 3069 3073 3075 3077 3080 3084 3087 3089 3090 3093 3095 3096 3097 3099 3100 3100 3100 3100 3100 3100 3100 3101 3102 3103 3104 3104
3095 3094 3092 3091 3089 3087 3085 3083 3081 3079 3077 3075 3072 3070 3068 3066 3064 3062 3060 3058 3054 3051 3048 3045 3041 3036 3032 3028 3024 3022 3020 3018 3015 3012 3010 3009 3009 3010 3009 3010 3010 3011 3014 3017 3018 3020 3022 3025 3028 3031 3034 3039 3044 3047 3051 3055 3058 3060 3062 3066 3069 3071 3074 3077 3080 3082 3084 3086 3089 3092 3093 3094 3095 3095 3096 3096 3096 3096 3097 3097 3097 3098 3100 3101 3101